Time,TemperatureF,DewpointF,PressureIn,WindDirection,WindDirectionDegrees,WindSpeedMPH,WindSpeedGustMPH,Humidity,HourlyPrecipIn,Conditions,Clouds,dailyrainin,SoftwareType,DateUTC
2013-06-08 00:01:00,75.6,73.1,29.85,WSW,241,9.0,9.0,92,0.00,,,0.00,Wunderground v.1.15,2013-06-08 04:01:00,
2013-06-08 00:11:00,75.5,73.0,29.85,West,263,8.0,8.0,92,0.00,,,0.00,Wunderground v.1.15,2013-06-08 04:11:00,
2013-06-08 00:20:00,75.5,73.0,29.86,WSW,241,7.0,7.0,92,0.00,,,0.00,Wunderground v.1.15,2013-06-08 04:20:00,
2013-06-08 00:31:00,75.5,73.0,29.86,WSW,242,8.0,8.0,92,0.00,,,0.00,Wunderground v.1.15,2013-06-08 04:31:00,
2013-06-08 00:41:00,75.5,73.0,29.86,SW,232,9.0,12.0,92,0.00,,,0.00,Wunderground v.1.15,2013-06-08 04:41:00,
2013-06-08 00:51:00,75.6,73.1,29.86,WSW,240,9.0,9.0,92,0.00,,,0.00,Wunderground v.1.15,2013-06-08 04:51:00,
2013-06-08 01:01:00,75.6,73.1,29.86,WSW,244,9.0,10.0,92,0.00,,,0.00,Wunderground v.1.15,2013-06-08 05:01:00,
2013-06-08 01:11:00,75.5,73.0,29.86,SW,231,9.0,11.0,92,0.00,,,0.00,Wunderground v.1.15,2013-06-08 05:11:00,
2013-06-08 01:20:00,75.5,73.0,29.86,SW,232,10.0,10.0,92,0.00,,,0.00,Wunderground v.1.15,2013-06-08 05:20:00,
2013-06-08 01:31:00,75.6,73.1,29.86,SSW,213,10.0,10.0,92,0.00,,,0.00,Wunderground v.1.15,2013-06-08 05:31:00,
2013-06-08 01:41:00,75.7,72.9,29.86,SW,235,10.0,10.0,91,0.00,,,0.00,Wunderground v.1.15,2013-06-08 05:41:00,
2013-06-08 01:51:00,75.7,72.9,29.86,SW,218,10.0,12.0,91,0.00,,,0.00,Wunderground v.1.15,2013-06-08 05:51:00,
2013-06-08 02:01:00,75.7,72.9,29.86,WSW,243,9.0,10.0,91,0.00,,,0.00,Wunderground v.1.15,2013-06-08 06:01:00,
2013-06-08 02:11:00,75.9,73.1,29.86,SW,235,10.0,10.0,91,0.00,,,0.00,Wunderground v.1.15,2013-06-08 06:11:00,
2013-06-08 02:21:00,76.1,73.0,29.86,SW,233,12.0,12.0,90,0.00,,,0.00,Wunderground v.1.15,2013-06-08 06:21:00,
2013-06-08 02:31:00,76.2,73.1,29.86,West,259,11.0,11.0,90,0.00,,,0.00,Wunderground v.1.15,2013-06-08 06:31:00,
2013-06-08 02:41:00,76.3,73.5,29.86,SW,219,12.0,13.0,91,0.00,,,0.00,Wunderground v.1.15,2013-06-08 06:41:00,
2013-06-08 02:51:00,76.4,73.6,29.87,SW,219,12.0,12.0,91,0.00,,,0.00,Wunderground v.1.15,2013-06-08 06:51:00,
2013-06-08 03:01:00,76.4,73.6,29.87,SW,236,11.0,11.0,91,0.00,,,0.00,Wunderground v.1.15,2013-06-08 07:01:00,
2013-06-08 03:10:00,76.4,73.9,29.87,WSW,247,12.0,12.0,92,0.00,,,0.00,Wunderground v.1.15,2013-06-08 07:10:00,
2013-06-08 03:21:00,76.5,74.0,29.87,WSW,242,12.0,12.0,92,0.00,,,0.00,Wunderground v.1.15,2013-06-08 07:21:00,
2013-06-08 03:31:00,76.6,74.1,29.87,SW,227,13.0,13.0,92,0.00,,,0.00,Wunderground v.1.15,2013-06-08 07:31:00,
2013-06-08 03:41:00,76.6,74.1,29.87,WSW,246,11.0,12.0,92,0.00,,,0.00,Wunderground v.1.15,2013-06-08 07:41:00,
2013-06-08 03:51:00,76.6,74.1,29.88,WSW,252,13.0,13.0,92,0.00,,,0.00,Wunderground v.1.15,2013-06-08 07:51:00,
2013-06-08 04:01:00,76.7,74.2,29.88,SW,228,13.0,13.0,92,0.00,,,0.00,Wunderground v.1.15,2013-06-08 08:01:00,
2013-06-08 04:10:00,76.7,74.2,29.88,SW,231,13.0,13.0,92,0.00,,,0.00,Wunderground v.1.15,2013-06-08 08:10:00,
2013-06-08 04:21:00,76.8,74.3,29.88,SW,225,13.0,13.0,92,0.00,,,0.00,Wunderground v.1.15,2013-06-08 08:21:00,
2013-06-08 04:30:00,76.7,74.2,29.88,WSW,238,13.0,13.0,92,0.00,,,0.00,Wunderground v.1.15,2013-06-08 08:30:00,
2013-06-08 04:41:00,76.7,74.5,29.88,WSW,238,14.0,14.0,93,0.00,,,0.00,Wunderground v.1.15,2013-06-08 08:41:00,
2013-06-08 04:51:00,76.7,74.5,29.88,SW,228,15.0,19.0,93,0.00,,,0.00,Wunderground v.1.15,2013-06-08 08:51:00,
2013-06-08 05:01:00,76.7,74.5,29.88,SW,230,14.0,14.0,93,0.00,,,0.00,Wunderground v.1.15,2013-06-08 09:01:00,
2013-06-08 05:11:00,76.7,74.5,29.88,WSW,243,14.0,14.0,93,0.00,,,0.00,Wunderground v.1.15,2013-06-08 09:11:00,
2013-06-08 05:21:00,76.6,74.4,29.89,WSW,242,13.0,13.0,93,0.00,,,0.00,Wunderground v.1.15,2013-06-08 09:21:00,
2013-06-08 05:31:00,76.7,74.5,29.89,WSW,238,14.0,14.0,93,0.00,,,0.00,Wunderground v.1.15,2013-06-08 09:31:00,
2013-06-08 05:40:00,76.8,74.6,29.89,SSW,192,14.0,14.0,93,0.00,,,0.00,Wunderground v.1.15,2013-06-08 09:40:00,
2013-06-08 05:51:00,76.8,74.6,29.90,SW,219,13.0,13.0,93,0.00,,,0.00,Wunderground v.1.15,2013-06-08 09:51:00,
2013-06-08 06:00:00,76.8,74.6,29.90,SW,236,13.0,13.0,93,0.00,,,0.00,Wunderground v.1.15,2013-06-08 10:00:00,
2013-06-08 06:11:00,76.8,74.6,29.90,SSW,208,14.0,15.0,93,0.00,,,0.00,Wunderground v.1.15,2013-06-08 10:11:00,
2013-06-08 06:20:00,76.9,74.7,29.90,WSW,250,13.0,13.0,93,0.00,,,0.00,Wunderground v.1.15,2013-06-08 10:20:00,
2013-06-08 06:31:00,77.1,74.6,29.90,WSW,248,14.0,14.0,92,0.00,,,0.00,Wunderground v.1.15,2013-06-08 10:31:00,
2013-06-08 06:40:00,77.3,74.8,29.90,WSW,240,12.0,12.0,92,0.00,,,0.00,Wunderground v.1.15,2013-06-08 10:40:00,
2013-06-08 06:51:00,77.5,75.0,29.91,WSW,252,12.0,18.0,92,0.00,,,0.00,Wunderground v.1.15,2013-06-08 10:51:00,
2013-06-08 07:01:00,77.7,74.9,29.91,WSW,245,12.0,12.0,91,0.00,,,0.00,Wunderground v.1.15,2013-06-08 11:01:00,
2013-06-08 07:11:00,78.1,75.3,29.91,SW,236,13.0,13.0,91,0.00,,,0.00,Wunderground v.1.15,2013-06-08 11:11:00,
2013-06-08 07:21:00,78.3,75.5,29.92,SW,229,13.0,13.0,91,0.00,,,0.00,Wunderground v.1.15,2013-06-08 11:21:00,
2013-06-08 07:30:00,78.4,75.2,29.92,SW,218,13.0,16.0,90,0.00,,,0.00,Wunderground v.1.15,2013-06-08 11:30:00,
2013-06-08 07:41:00,78.3,75.5,29.92,WSW,240,14.0,14.0,91,0.00,,,0.00,Wunderground v.1.15,2013-06-08 11:41:00,
2013-06-08 07:51:00,78.2,75.4,29.92,SW,221,14.0,17.0,91,0.00,,,0.00,Wunderground v.1.15,2013-06-08 11:51:00,
2013-06-08 08:01:00,78.0,75.2,29.93,SSW,208,14.0,14.0,91,0.00,,,0.00,Wunderground v.1.15,2013-06-08 12:01:00,
2013-06-08 08:10:00,78.0,75.2,29.93,South,184,13.0,13.0,91,0.00,,,0.00,Wunderground v.1.15,2013-06-08 12:10:00,
2013-06-08 08:21:00,78.1,74.9,29.94,SW,236,14.0,14.0,90,0.00,,,0.00,Wunderground v.1.15,2013-06-08 12:21:00,
2013-06-08 08:31:00,78.7,74.8,29.95,SW,234,10.0,11.0,88,0.00,,,0.00,Wunderground v.1.15,2013-06-08 12:31:00,
2013-06-08 08:41:00,78.3,75.1,29.95,WSW,238,12.0,12.0,90,0.00,,,0.00,Wunderground v.1.15,2013-06-08 12:41:00,
2013-06-08 08:51:00,78.8,75.6,29.95,SW,220,14.0,17.0,90,0.00,,,0.00,Wunderground v.1.15,2013-06-08 12:51:00,
2013-06-08 09:01:00,78.7,75.5,29.95,SSW,209,13.0,16.0,90,0.00,,,0.00,Wunderground v.1.15,2013-06-08 13:01:00,
2013-06-08 09:11:00,78.8,75.6,29.95,SW,229,14.0,15.0,90,0.00,,,0.00,Wunderground v.1.15,2013-06-08 13:11:00,
2013-06-08 09:21:00,79.0,75.8,29.96,SSW,212,14.0,14.0,90,0.00,,,0.00,Wunderground v.1.15,2013-06-08 13:21:00,
2013-06-08 09:31:00,78.8,75.9,29.96,WSW,246,15.0,16.0,91,0.00,,,0.00,Wunderground v.1.15,2013-06-08 13:31:00,
2013-06-08 09:41:00,78.8,75.9,29.96,WSW,246,14.0,18.0,91,0.00,,,0.00,Wunderground v.1.15,2013-06-08 13:41:00,
2013-06-08 09:51:00,78.8,75.9,29.96,WSW,242,15.0,15.0,91,0.00,,,0.00,Wunderground v.1.15,2013-06-08 13:51:00,
2013-06-08 10:01:00,79.1,76.2,29.97,SW,216,14.0,15.0,91,0.00,,,0.00,Wunderground v.1.15,2013-06-08 14:01:00,
2013-06-08 10:11:00,80.1,76.9,29.97,WSW,240,14.0,18.0,90,0.00,,,0.00,Wunderground v.1.15,2013-06-08 14:11:00,
2013-06-08 10:21:00,80.6,76.7,29.97,SW,235,15.0,15.0,88,0.00,,,0.00,Wunderground v.1.15,2013-06-08 14:21:00,
2013-06-08 10:31:00,80.7,76.5,29.97,West,259,15.0,15.0,87,0.00,,,0.00,Wunderground v.1.15,2013-06-08 14:31:00,
2013-06-08 10:41:00,80.0,76.5,29.97,West,261,15.0,15.0,89,0.00,,,0.00,Wunderground v.1.15,2013-06-08 14:41:00,
2013-06-08 10:51:00,80.6,76.7,29.97,SW,230,16.0,18.0,88,0.00,,,0.00,Wunderground v.1.15,2013-06-08 14:51:00,
2013-06-08 11:01:00,80.6,76.7,29.97,SSW,209,15.0,20.0,88,0.00,,,0.00,Wunderground v.1.15,2013-06-08 15:01:00,
2013-06-08 11:11:00,79.8,76.6,29.97,SSW,202,17.0,17.0,90,0.00,,,0.00,Wunderground v.1.15,2013-06-08 15:11:00,
2013-06-08 11:21:00,79.7,76.8,29.97,SSW,213,17.0,22.0,91,0.00,,,0.00,Wunderground v.1.15,2013-06-08 15:21:00,
2013-06-08 11:31:00,80.1,76.9,29.97,WSW,241,17.0,18.0,90,0.00,,,0.00,Wunderground v.1.15,2013-06-08 15:31:00,
2013-06-08 11:41:00,80.1,76.6,29.97,WSW,246,18.0,22.0,89,0.00,,,0.00,Wunderground v.1.15,2013-06-08 15:41:00,
2013-06-08 11:51:00,80.2,76.7,29.97,WSW,252,18.0,20.0,89,0.00,,,0.00,Wunderground v.1.15,2013-06-08 15:51:00,
2013-06-08 12:01:00,80.4,76.5,29.97,SSW,211,16.0,16.0,88,0.00,,,0.00,Wunderground v.1.15,2013-06-08 16:01:00,
2013-06-08 12:11:00,80.5,75.9,29.97,SW,232,17.0,17.0,86,0.00,,,0.00,Wunderground v.1.15,2013-06-08 16:11:00,
2013-06-08 12:21:00,81.9,75.5,29.97,WSW,238,16.0,21.0,81,0.00,,,0.00,Wunderground v.1.15,2013-06-08 16:21:00,
2013-06-08 12:31:00,81.8,75.8,29.98,SW,223,17.0,17.0,82,0.00,,,0.00,Wunderground v.1.15,2013-06-08 16:31:00,
2013-06-08 12:41:00,81.7,75.7,29.98,WSW,237,16.0,16.0,82,0.00,,,0.00,Wunderground v.1.15,2013-06-08 16:41:00,
2013-06-08 12:51:00,81.8,75.0,29.97,SW,218,16.0,18.0,80,0.00,,,0.00,Wunderground v.1.15,2013-06-08 16:51:00,
2013-06-08 13:01:00,81.6,75.9,29.97,SW,218,18.0,18.0,83,0.00,,,0.00,Wunderground v.1.15,2013-06-08 17:01:00,
2013-06-08 13:11:00,81.4,76.1,29.97,WSW,238,17.0,17.0,84,0.00,,,0.00,Wunderground v.1.15,2013-06-08 17:11:00,
2013-06-08 13:21:00,81.7,75.3,29.97,South,187,16.0,18.0,81,0.00,,,0.00,Wunderground v.1.15,2013-06-08 17:21:00,
2013-06-08 13:31:00,80.8,75.9,29.96,SW,217,18.0,18.0,85,0.00,,,0.00,Wunderground v.1.15,2013-06-08 17:31:00,
2013-06-08 13:41:00,80.8,75.5,29.96,SSW,208,18.0,18.0,84,0.00,,,0.00,Wunderground v.1.15,2013-06-08 17:41:00,
2013-06-08 13:51:00,81.0,75.7,29.97,SW,232,18.0,22.0,84,0.00,,,0.00,Wunderground v.1.15,2013-06-08 17:51:00,
2013-06-08 14:01:00,81.3,75.6,29.96,SW,215,17.0,19.0,83,0.00,,,0.00,Wunderground v.1.15,2013-06-08 18:01:00,
2013-06-08 14:11:00,80.3,75.7,29.96,SW,224,19.0,19.0,86,0.00,,,0.00,Wunderground v.1.15,2013-06-08 18:11:00,
2013-06-08 14:21:00,80.4,75.5,29.97,SW,232,18.0,18.0,85,0.00,,,0.00,Wunderground v.1.15,2013-06-08 18:21:00,
2013-06-08 14:31:00,81.1,75.4,29.96,SW,218,17.0,17.0,83,0.00,,,0.00,Wunderground v.1.15,2013-06-08 18:31:00,
2013-06-08 14:41:00,81.6,75.9,29.96,SW,225,16.0,22.0,83,0.00,,,0.00,Wunderground v.1.15,2013-06-08 18:41:00,
2013-06-08 14:51:00,81.7,75.7,29.96,WSW,251,15.0,15.0,82,0.00,,,0.00,Wunderground v.1.15,2013-06-08 18:51:00,
2013-06-08 15:01:00,81.3,74.9,29.96,SW,232,17.0,20.0,81,0.00,,,0.00,Wunderground v.1.15,2013-06-08 19:01:00,
2013-06-08 15:11:00,80.6,75.3,29.96,SSW,213,18.0,18.0,84,0.00,,,0.00,Wunderground v.1.15,2013-06-08 19:11:00,
2013-06-08 15:21:00,80.8,75.5,29.96,SW,225,18.0,20.0,84,0.00,,,0.00,Wunderground v.1.15,2013-06-08 19:21:00,
2013-06-08 15:31:00,80.7,76.1,29.96,WSW,244,18.0,18.0,86,0.00,,,0.00,Wunderground v.1.15,2013-06-08 19:31:00,
2013-06-08 15:41:00,80.4,75.8,29.96,SW,215,18.0,20.0,86,0.00,,,0.00,Wunderground v.1.15,2013-06-08 19:41:00,
2013-06-08 15:51:00,80.3,75.7,29.97,WSW,247,19.0,20.0,86,0.00,,,0.00,Wunderground v.1.15,2013-06-08 19:51:00,
2013-06-08 16:01:00,80.3,75.7,29.97,SW,221,18.0,23.0,86,0.00,,,0.00,Wunderground v.1.15,2013-06-08 20:01:00,
2013-06-08 16:11:00,80.5,75.6,29.97,WSW,244,19.0,19.0,85,0.00,,,0.00,Wunderground v.1.15,2013-06-08 20:11:00,
2013-06-08 16:21:00,80.6,76.0,29.97,SSW,197,18.0,18.0,86,0.00,,,0.00,Wunderground v.1.15,2013-06-08 20:21:00,
2013-06-08 16:31:00,80.8,76.2,29.97,WSW,243,17.0,17.0,86,0.00,,,0.00,Wunderground v.1.15,2013-06-08 20:31:00,
2013-06-08 16:41:00,81.2,75.5,29.97,WSW,245,14.0,15.0,83,0.00,,,0.00,Wunderground v.1.15,2013-06-08 20:41:00,
2013-06-08 16:51:00,81.1,75.4,29.97,WSW,238,14.0,14.0,83,0.00,,,0.00,Wunderground v.1.15,2013-06-08 20:51:00,
2013-06-08 17:01:00,81.3,75.3,29.98,SW,235,12.0,12.0,82,0.00,,,0.00,Wunderground v.1.15,2013-06-08 21:01:00,
2013-06-08 17:11:00,81.4,75.7,29.98,SW,229,11.0,17.0,83,0.00,,,0.00,Wunderground v.1.15,2013-06-08 21:11:00,
2013-06-08 17:21:00,81.0,75.0,29.97,WSW,242,13.0,21.0,82,0.00,,,0.00,Wunderground v.1.15,2013-06-08 21:21:00,
2013-06-08 17:31:00,81.0,75.3,29.98,SW,234,11.0,15.0,83,0.00,,,0.00,Wunderground v.1.15,2013-06-08 21:31:00,
2013-06-08 17:41:00,80.6,74.6,29.98,WSW,252,15.0,15.0,82,0.00,,,0.00,Wunderground v.1.15,2013-06-08 21:41:00,
2013-06-08 17:51:00,80.6,75.0,29.98,WSW,243,13.0,17.0,83,0.00,,,0.00,Wunderground v.1.15,2013-06-08 21:51:00,
2013-06-08 18:01:00,80.3,74.7,29.99,SW,236,14.0,14.0,83,0.00,,,0.00,Wunderground v.1.15,2013-06-08 22:01:00,
2013-06-08 18:21:00,79.9,75.0,29.99,WSW,247,13.0,13.0,85,0.00,,,0.00,Wunderground v.1.15,2013-06-08 22:21:00,
2013-06-08 18:30:00,79.9,75.0,29.99,WSW,249,11.0,11.0,85,0.00,,,0.00,Wunderground v.1.15,2013-06-08 22:30:00,
2013-06-08 18:40:00,79.2,74.6,29.99,SSW,213,14.0,14.0,86,0.00,,,0.00,Wunderground v.1.15,2013-06-08 22:40:00,
2013-06-08 18:50:00,79.3,74.7,29.99,WSW,256,11.0,13.0,86,0.00,,,0.00,Wunderground v.1.15,2013-06-08 22:50:00,
2013-06-08 19:00:00,79.0,74.5,30.00,SW,219,12.0,12.0,86,0.00,,,0.00,Wunderground v.1.15,2013-06-08 23:00:00,
2013-06-08 19:10:00,78.9,74.4,30.00,WSW,243,10.0,10.0,86,0.00,,,0.00,Wunderground v.1.15,2013-06-08 23:10:00,
2013-06-08 19:20:00,78.9,74.4,30.01,SW,221,11.0,11.0,86,0.00,,,0.00,Wunderground v.1.15,2013-06-08 23:20:00,
2013-06-08 19:30:00,78.4,74.2,30.02,SW,236,9.0,16.0,87,0.00,,,0.00,Wunderground v.1.15,2013-06-08 23:30:00,
2013-06-08 19:40:00,78.0,73.8,30.02,WSW,238,9.0,10.0,87,0.00,,,0.00,Wunderground v.1.15,2013-06-08 23:40:00,
2013-06-08 19:50:00,77.7,73.9,30.02,WSW,256,9.0,9.0,88,0.00,,,0.00,Wunderground v.1.15,2013-06-08 23:50:00,
2013-06-08 20:00:00,77.5,73.7,30.03,WSW,240,8.0,9.0,88,0.00,,,0.00,Wunderground v.1.15,2013-06-09 00:00:00,
2013-06-08 20:10:00,77.2,73.7,30.03,SW,221,8.0,8.0,89,0.00,,,0.00,Wunderground v.1.15,2013-06-09 00:10:00,
2013-06-08 20:20:00,77.1,73.6,30.03,WSW,237,8.0,8.0,89,0.00,,,0.00,Wunderground v.1.15,2013-06-09 00:20:00,
2013-06-08 20:30:00,77.0,73.5,30.03,SW,232,7.0,10.0,89,0.00,,,0.00,Wunderground v.1.15,2013-06-09 00:30:00,
2013-06-08 20:40:00,77.0,73.5,30.03,WSW,252,9.0,9.0,89,0.00,,,0.00,Wunderground v.1.15,2013-06-09 00:40:00,
2013-06-08 20:50:00,76.9,73.4,30.04,WSW,240,7.0,7.0,89,0.00,,,0.00,Wunderground v.1.15,2013-06-09 00:50:00,
2013-06-08 21:00:00,76.7,73.5,30.05,WSW,252,7.0,7.0,90,0.00,,,0.00,Wunderground v.1.15,2013-06-09 01:00:00,
2013-06-08 21:10:00,76.6,73.4,30.05,West,266,8.0,8.0,90,0.00,,,0.00,Wunderground v.1.15,2013-06-09 01:10:00,
2013-06-08 21:20:00,76.4,73.2,30.05,WSW,251,5.0,5.0,90,0.00,,,0.00,Wunderground v.1.15,2013-06-09 01:20:00,
2013-06-08 21:30:00,76.4,72.9,30.06,WSW,243,5.0,7.0,89,0.00,,,0.00,Wunderground v.1.15,2013-06-09 01:30:00,
2013-06-08 21:40:00,76.4,72.9,30.06,SSW,209,5.0,5.0,89,0.00,,,0.00,Wunderground v.1.15,2013-06-09 01:40:00,
2013-06-08 21:50:00,76.5,73.0,30.06,SW,236,6.0,6.0,89,0.00,,,0.00,Wunderground v.1.15,2013-06-09 01:50:00,
2013-06-08 22:00:00,76.6,73.4,30.07,WSW,240,5.0,5.0,90,0.00,,,0.00,Wunderground v.1.15,2013-06-09 02:00:00,
2013-06-08 22:10:00,76.5,73.3,30.07,SW,215,5.0,5.0,90,0.00,,,0.00,Wunderground v.1.15,2013-06-09 02:10:00,
2013-06-08 22:20:00,76.5,73.3,30.08,SW,232,6.0,6.0,90,0.00,,,0.00,Wunderground v.1.15,2013-06-09 02:20:00,
2013-06-08 22:30:00,76.4,73.2,30.08,WSW,248,7.0,7.0,90,0.00,,,0.00,Wunderground v.1.15,2013-06-09 02:30:00,
2013-06-08 22:40:00,76.4,73.2,30.08,WSW,246,6.0,6.0,90,0.00,,,0.00,Wunderground v.1.15,2013-06-09 02:40:00,
2013-06-08 22:50:00,76.3,73.5,30.08,West,270,6.0,6.0,91,0.00,,,0.00,Wunderground v.1.15,2013-06-09 02:50:00,
2013-06-08 23:00:00,76.3,73.5,30.08,SW,236,6.0,8.0,91,0.00,,,0.00,Wunderground v.1.15,2013-06-09 03:00:00,
2013-06-08 23:10:00,76.3,73.5,30.08,West,275,6.0,8.0,91,0.00,,,0.00,Wunderground v.1.15,2013-06-09 03:10:00,
2013-06-08 23:20:00,76.2,73.4,30.08,WSW,257,6.0,6.0,91,0.00,,,0.00,Wunderground v.1.15,2013-06-09 03:20:00,
2013-06-08 23:30:00,76.2,73.4,30.09,SW,227,5.0,5.0,91,0.00,,,0.00,Wunderground v.1.15,2013-06-09 03:30:00,
2013-06-08 23:40:00,76.1,73.3,30.09,West,261,4.0,4.0,91,0.00,,,0.00,Wunderground v.1.15,2013-06-09 03:40:00,
2013-06-08 23:50:00,76.1,73.6,30.08,WSW,247,5.0,5.0,92,0.00,,,0.00,Wunderground v.1.15,2013-06-09 03:50:00,